Las Cruces, NM

7:20 PM MST on January 18, 2017 (GMT -0700)
Las Cruces International

Weather History for KLRU - March, 2014

Change the Weather History Date:

Sunday, March 2, 2014

  Actual Average Record
Temperature  
Mean Temperature 51 °F -  
Max Temperature 59 °F 58 °F 82 °F (2016)
Min Temperature 43 °F 35 °F 23 °F (2007)
Degree Days  
Heating Degree Days 14    
Growing Degree Days 1 (Base 50)    
Moisture  
Dew Point 38 °F    
Average Humidity 67    
Maximum Humidity 97    
Minimum Humidity 35    
Precipitation  
Precipitation 0.10 in - - ()
Sea Level Pressure  
Sea Level Pressure 30.07 in    
Wind  
Wind Speed 13 mph (West)    
Max Wind Speed 29 mph    
Max Gust Speed 33 mph    
Visibility 10 miles    
Events Rain    
Averages and records for this station are not official NWS values.
T = Trace of Precipitation, MM = Missing Value Source: NWS Daily Summary

Daily Weather History Graph

Daily Weather History Graph

Search for Another Location

Airport or City:

Trip Planner

Search our weather history database for the weather conditions in past years. The results will help you decide how hot, cold, wet, or windy it might be!

Date:

Astronomy

Mar. 02, 2014 Rise Set
Actual Time 6:33 AM MST 6:06 PM MST
Civil Twilight 6:09 AM MST 6:30 PM MST
Nautical Twilight 5:40 AM MST 6:59 PM MST
Astronomical Twilight 5:12 AM MST 7:27 PM MST
Moon 7:14 AM MST (3/2) 7:56 PM MST (3/2)
Length of Visible Light 12h 21m
Length of Day
11h 32m
Waxing Crescent, 3% of the Moon is Illuminated
Mar 2
Waxing Crescent
Mar 8
First Quarter
Mar 16
Full
Mar 23
Last Quarter
Mar 30
New

Hourly Weather History & Observations

Time (MST) Temp. Windchill Dew Point Humidity Pressure Visibility Wind Dir Wind Speed Gust Speed Precip Events Conditions
12:15 AM 51.3 °F - 42.8 °F 73% 30.00 in 10.0 mi West 15.0 mph - N/A   Overcast
12:35 AM 50.5 °F - 42.8 °F 75% 30.01 in 10.0 mi West 13.8 mph - N/A   Overcast
12:55 AM 49.8 °F - 43.7 °F 79% 30.01 in 10.0 mi West 8.1 mph - N/A Rain Rain
1:15 AM 48.2 °F - 45.0 °F 89% 30.03 in 7.0 mi WNW 11.5 mph 16.1 mph N/A Rain Light Rain
1:35 AM 46.2 °F 39.0 °F 43.3 °F 90% 30.03 in 10.0 mi West 18.4 mph 25.3 mph N/A   Overcast
1:55 AM 45.7 °F 40.2 °F 42.6 °F 89% 30.00 in 10.0 mi WNW 11.5 mph - N/A   Overcast
2:15 AM 45.7 °F 41.0 °F 42.1 °F 87% 30.01 in 10.0 mi West 9.2 mph - N/A   Overcast
2:35 AM 45.3 °F 41.6 °F 42.4 °F 90% 30.00 in 10.0 mi NW 6.9 mph - N/A   Overcast
2:55 AM 44.6 °F 40.2 °F 42.8 °F 93% 30.00 in 7.0 mi NW 8.1 mph - 0.02 in   Overcast
3:15 AM 44.4 °F 38.6 °F 42.1 °F 91% 30.01 in 7.0 mi NW 11.5 mph 17.3 mph 0.03 in   Overcast
3:35 AM 44.8 °F 38.3 °F 41.9 °F 90% 30.03 in 10.0 mi West 13.8 mph 19.6 mph 0.06 in   Mostly Cloudy
3:55 AM 44.6 °F 38.8 °F 42.1 °F 91% 30.01 in 10.0 mi West 11.5 mph - 0.07 in   Overcast
4:15 AM 44.8 °F 39.4 °F 42.4 °F 91% 30.00 in 10.0 mi SW 10.4 mph - N/A   Overcast
4:35 AM 45.0 °F 40.1 °F 43.0 °F 93% 30.01 in 10.0 mi SW 9.2 mph - 0.01 in   Overcast
4:55 AM 45.1 °F 41.4 °F 43.2 °F 93% 30.01 in 10.0 mi SW 6.9 mph - 0.01 in   Overcast
5:15 AM 44.8 °F 39.9 °F 43.2 °F 94% 30.03 in 10.0 mi WSW 9.2 mph - N/A   Overcast
5:35 AM 44.4 °F 40.5 °F 42.8 °F 94% 30.03 in 10.0 mi SW 6.9 mph - N/A   Mostly Cloudy
5:55 AM 43.9 °F 40.5 °F 42.8 °F 96% 30.04 in 10.0 mi West 5.8 mph - N/A   Clear
6:15 AM 44.1 °F 40.1 °F 43.2 °F 97% 30.05 in 10.0 mi West 6.9 mph - N/A   Mostly Cloudy
6:35 AM 44.6 °F 39.2 °F 43.2 °F 95% 30.04 in 10.0 mi West 10.4 mph - N/A   Overcast
6:55 AM 44.1 °F 38.6 °F 42.4 °F 94% 30.05 in 10.0 mi WSW 10.4 mph 16.1 mph N/A   Scattered Clouds
7:15 AM 43.9 °F 37.9 °F 42.6 °F 95% 30.05 in 10.0 mi WSW 11.5 mph - N/A   Clear
7:35 AM 43.9 °F 37.9 °F 42.4 °F 95% 30.04 in 10.0 mi WSW 11.5 mph - N/A   Clear
7:55 AM 44.6 °F 37.8 °F 41.4 °F 88% 30.04 in 10.0 mi West 15.0 mph 19.6 mph N/A   Clear
8:15 AM 46.0 °F 40.2 °F 41.2 °F 83% 30.05 in 10.0 mi WSW 12.7 mph 18.4 mph N/A   Clear
8:35 AM 47.1 °F - 40.5 °F 78% 30.07 in 10.0 mi WSW 8.1 mph - N/A   Clear
8:55 AM 48.0 °F - 40.8 °F 76% 30.08 in 10.0 mi SW 10.4 mph - N/A   Scattered Clouds
9:15 AM 49.3 °F - 41.0 °F 73% 30.10 in 10.0 mi West 9.2 mph - N/A   Mostly Cloudy
9:35 AM 49.8 °F - 40.8 °F 71% 30.11 in 10.0 mi West 12.7 mph - N/A   Overcast
9:55 AM 50.9 °F - 41.4 °F 70% 30.10 in 10.0 mi WSW 15.0 mph 19.6 mph N/A   Mostly Cloudy
10:15 AM 51.1 °F - 40.3 °F 67% 30.10 in 10.0 mi West 17.3 mph 23.0 mph N/A   Clear
10:35 AM 52.5 °F - 39.6 °F 61% 30.09 in 10.0 mi WSW 20.7 mph 26.5 mph N/A   Clear
10:55 AM 52.9 °F - 40.3 °F 62% 30.09 in 10.0 mi West 24.2 mph 29.9 mph N/A   Clear
11:15 AM 53.8 °F - 39.7 °F 59% 30.12 in 10.0 mi WSW 18.4 mph 26.5 mph N/A   Scattered Clouds
11:35 AM 53.1 °F - 39.2 °F 59% 30.11 in 10.0 mi WSW 16.1 mph 20.7 mph N/A   Mostly Cloudy
11:55 AM 53.6 °F - 38.7 °F 57% 30.11 in 10.0 mi WSW 17.3 mph 25.3 mph N/A   Mostly Cloudy
12:15 PM 55.8 °F - 37.9 °F 51% 30.09 in 10.0 mi WSW 24.2 mph 31.1 mph N/A   Mostly Cloudy
12:35 PM 57.0 °F - 36.5 °F 46% 30.10 in 10.0 mi West 25.3 mph 29.9 mph N/A   Mostly Cloudy
12:55 PM 56.5 °F - 35.2 °F 45% 30.09 in 10.0 mi West 24.2 mph 33.4 mph N/A   Scattered Clouds
1:15 PM 57.2 °F - 36.1 °F 45% 30.08 in 10.0 mi West 28.8 mph 33.4 mph N/A   Scattered Clouds
1:35 PM 57.2 °F - 35.6 °F 44% 30.08 in 10.0 mi West 20.7 mph 31.1 mph N/A   Scattered Clouds
1:55 PM 58.1 °F - 34.5 °F 41% 30.07 in 10.0 mi West 23.0 mph 32.2 mph N/A   Clear
2:15 PM 58.3 °F - 33.8 °F 40% 30.06 in 10.0 mi West 24.2 mph 29.9 mph N/A   Clear
2:35 PM 58.5 °F - 34.2 °F 40% 30.07 in 10.0 mi WSW 23.0 mph 31.1 mph N/A   Clear
2:55 PM 58.8 °F - 33.8 °F 39% 30.07 in 10.0 mi WSW 17.3 mph 26.5 mph N/A   Scattered Clouds
3:15 PM 59.0 °F - 33.6 °F 38% 30.07 in 10.0 mi WSW 23.0 mph 29.9 mph N/A   Scattered Clouds
3:35 PM 59.2 °F - 32.7 °F 37% 30.06 in 10.0 mi WSW 20.7 mph 25.3 mph N/A   Clear
3:55 PM 59.0 °F - 32.2 °F 36% 30.07 in 10.0 mi West 17.3 mph 26.5 mph N/A   Clear
4:15 PM 59.0 °F - 31.6 °F 36% 30.06 in 10.0 mi WNW 13.8 mph 20.7 mph N/A   Clear
4:35 PM 59.2 °F - 31.6 °F 35% 30.06 in 10.0 mi WSW 16.1 mph - N/A   Clear
4:55 PM 58.6 °F - 31.1 °F 35% 30.07 in 10.0 mi West 16.1 mph 24.2 mph N/A   Clear
5:15 PM 58.1 °F - 31.3 °F 36% 30.07 in 10.0 mi West 17.3 mph - N/A   Clear
5:35 PM 57.0 °F - 32.0 °F 39% 30.08 in 10.0 mi WSW 16.1 mph 20.7 mph N/A   Clear
5:55 PM 55.8 °F - 32.5 °F 41% 30.08 in 10.0 mi WSW 15.0 mph 19.6 mph N/A   Clear
6:15 PM 54.9 °F - 32.7 °F 43% 30.08 in 10.0 mi WSW 13.8 mph - N/A   Clear
6:35 PM 53.8 °F - 33.3 °F 46% 30.09 in 10.0 mi West 9.2 mph - N/A   Clear
6:55 PM 52.7 °F - 33.8 °F 49% 30.11 in 10.0 mi WSW 9.2 mph - N/A   Clear
7:15 PM 51.8 °F - 34.5 °F 52% 30.11 in 10.0 mi West 11.5 mph - N/A   Clear
7:35 PM 50.5 °F - 35.1 °F 55% 30.12 in 10.0 mi West 9.2 mph - N/A   Clear
7:55 PM 50.0 °F - 35.1 °F 57% 30.11 in 10.0 mi WNW 6.9 mph - N/A   Clear
8:15 PM 48.7 °F - 35.6 °F 60% 30.11 in 10.0 mi NNW 6.9 mph - N/A   Clear
8:35 PM 48.4 °F - 35.8 °F 62% 30.10 in 10.0 mi WNW 5.8 mph - N/A   Clear
8:55 PM 47.7 °F - 36.3 °F 65% 30.11 in 10.0 mi West 8.1 mph - N/A   Clear
9:15 PM 47.5 °F - 36.5 °F 66% 30.12 in 10.0 mi WSW 3.5 mph - N/A   Clear
9:35 PM 48.0 °F - 36.3 °F 64% 30.13 in 10.0 mi SSE 8.1 mph - N/A   Clear
9:55 PM 48.2 °F - 36.5 °F 64% 30.14 in 10.0 mi WSW 4.6 mph - N/A   Clear
10:15 PM 47.8 °F - 36.7 °F 65% 30.14 in 10.0 mi West 6.9 mph - N/A   Clear
10:35 PM 46.4 °F 43.5 °F 37.0 °F 70% 30.16 in 10.0 mi West 5.8 mph - N/A   Clear
10:55 PM 46.8 °F - 36.9 °F 68% 30.15 in 10.0 mi WNW 8.1 mph - N/A   Clear
11:15 PM 47.1 °F - 36.7 °F 67% 30.15 in 10.0 mi WNW 3.5 mph - N/A   Clear
11:35 PM 47.1 °F - 36.5 °F 67% 30.15 in 10.0 mi West 9.2 mph - N/A   Clear
11:55 PM 46.9 °F - 36.5 °F 67% 30.15 in 10.0 mi West 9.2 mph - N/A   Clear